Regional Weather Roundup
Issued by NWS Upton, NY

Current Version | Previous Version | Text Only | Print | Product List | Glossary Off
Versions: 1 2 3 4 5 6 7 8 9 10 11 12 13 14 15 16 17 18 19 20 21 22 23 24 25 26 27 28 29 30 31 32 33 34 35 36 37 38 39 40 41 42 43 44 45 46 47 48
000 ASUS41 KOKX 021504 RWROKX REGIONAL WEATHER ROUNDUP NATIONAL WEATHER SERVICE NEW YORK NY 1100 AM EDT SUN AUG 02 2015 NOTE: "FAIR" INDICATES FEW OR NO CLOUDS BELOW 12,000 FEET WITH NO SIGNIFICANT WEATHER AND/OR OBSTRUCTIONS TO VISIBILITY. NYZ071-072-176-178-NJZ106-104-021600- NEW YORK CITY METRO AREA CITY SKY/WX TMP DP RH WIND PRES REMARKS CENTRAL PARK SUNNY 82 55 39 VRB6 29.96R LAGUARDIA APRT MOSUNNY 84 51 31 SW6 29.93R KENNEDY INTL MOSUNNY 84 55 36 S7 29.94R NEWARK/LIBERTY MOSUNNY 86 53 32 W8 29.93S BRNX BOT. GARD N/A 82 52 34 W15 29.95R TETERBORO SUNNY 83 55 38 CALM 29.92S $$ NYZ177-179-078>081-021600- LONG ISLAND NEW YORK CITY SKY/WX TMP DP RH WIND PRES REMARKS FARMINGDALE SUNNY 82 56 40 S9 29.94R ISLIP MOSUNNY 81 57 43 VRB7 29.92R SHIRLEY SUNNY 83 56 39 S7 29.94S WESTHAMPTON SUNNY 84 54 35 S8 29.95S MONTAUK POINT N/A 82 59 45 VRB3 29.95R $$ NYZ052-065-067-021600- HUDSON VALLEY CITY SKY/WX TMP DP RH WIND PRES REMARKS WHITE PLAINS MOSUNNY 80 55 42 W3 29.95R NEWBURGH SUNNY 81 59 47 SW9 29.95S MONTGOMERY SUNNY 81 57 43 SW13 29.93S POUGHKEEPSIE SUNNY 82 55 39 SW6 29.92S ALBANY MOSUNNY 78 57 48 CALM 29.91R $$ NJZ001-105-106-008-010-013-015-019>022-104-021600- NEW JERSEY CITY SKY/WX TMP DP RH WIND PRES REMARKS NEWARK/LIBERTY MOSUNNY 86 53 32 W8 29.93S TETERBORO SUNNY 83 55 38 CALM 29.92S CALDWELL SUNNY 81 50 33 VRB3 29.94S MORRISTOWN SUNNY 84 54 34 NW6 29.94S SOMERVILLE SUNNY 84 54 35 CALM 29.92S SUSSEX SUNNY 78 60 53 VRB5 29.95S ANDOVER N/A 77 59 53 S3 29.96S TRENTON SUNNY 82 55 39 CALM 29.94S MILLVILLE MOSUNNY 84 60 44 W5 29.95R ATLANTIC CITY MOSUNNY 84 60 44 NW5 29.95R WRIGHTSTOWN NOT AVBL TOMS RIVER N/A 84 57 39 CALM 29.94R BELMAR SUNNY 82 57 42 W5 29.94S $$ PAZ047>061-062-071-021600- EASTERN PENNSYLVANIA CITY SKY/WX TMP DP RH WIND PRES REMARKS PHILADELPHIA PTSUNNY 84 57 39 VRB3 29.95R ALLENTOWN SUNNY 80 61 52 CALM 29.96S SCRANTON SUNNY 76 58 53 SW8 29.96S $$ CTZ002-004>006-009-010-012-RIZ004-006-007-MAZ004-011-015-021600- SOUTHERN NEW ENGLAND IN CT CITY SKY/WX TMP DP RH WIND PRES REMARKS BRADLEY INTL MOSUNNY 80 59 48 S8 29.91S HARTFORD SUNNY 81 55 40 VRB5 29.92S DANBURY SUNNY 79 56 45 SW13 29.96R WTRBRY/OXFORD MOSUNNY 77 57 50 S5 29.98R BRIDGEPORT SUNNY 80 62 54 SW7 29.94R MERIDEN SUNNY 81 56 42 VRB7 29.93S NEW HAVEN SUNNY 78 59 51 S8 29.94R CHESTER FAIR 79 57 47 SW6 29.95S GROTON SUNNY 76 55 48 SW7 29.93R WILLIMANTIC SUNNY 81 54 39 SW8 29.93S IN RI CITY SKY/WX TMP DP RH WIND PRES REMARKS PROVIDENCE SUNNY 82 55 39 SW6 29.92S BLOCK ISLAND N/A 82 55 39 W7 29.95R WESTERLY SUNNY 78 56 46 SW8 29.94R IN MA CITY SKY/WX TMP DP RH WIND PRES REMARKS BOSTON SUNNY 81 52 36 VRB7 29.90R WORCESTER SUNNY 76 55 48 W9 29.95R WESTFIELD SUNNY 78 59 51 S8 29.92S PROVINCETOWN SUNNY 75 55 50 W6 29.91S NANTUCKET SUNNY 82 56 40 NW9 29.92R $$ ANZ330-335-338-340-345-350-353-355-021600- COASTAL MARINE OBSERVATIONS STATION/POSITION TIME SKY/WX TEMP WIND PRES VSBY WAVE AIR SEA DIR/SP/G HT/PER (UTC) (F) (DEG/KT/KT) (MB) (MI) (FT/S) NY HARB ENTRANCE 1350 74 77 330/ 4/ 6 1013.1 3/ 8 4S FIRE IS NOT AVBL 20S FIRE ISLAND 1350 75 76 40/ 6/ 6 1013.1 4/ 6 GREAT SOUTH BAY 1430 75 81 140/ 6/ 8 N/A 23SW MTP 1450 74 74 120/ 2/ 2 1013.4 3/ 8 HUDSON CANYON NOT AVBL KINGS POINT 1400 77 20/ 4/ 6 1012.6 EXECUTION ROCKS 1400 74 40/ 2/ 2 N/A CENTRAL LI SOUND NOT AVBL EASTERN LI SOUND 1400 71 69 250/ 2/ 4 N/A ROBBINS REEF 1400 76 120/ 3/ 3 1012.3 $$ >>>>>>>>>>>>>>>>>>>>>>>>>>>> KEY <<<<<<<<<<<<<<<<<<<<<<<<<<< > < > SKY/WX - SKY CONDITION/PRESENT WEATHER < > TMP - TEMPERATURE IN FAHRENHEIT < > DP - DEWPOINT IN FAHRENHEIT < > RH - RELATIVE HUMIDITY IN PERCENT < > WIND - DIRECTION AND SPEED IN MPH < > PRES - MEAN SEA LEVEL PRESSURE IN INCHES OF HG < > WCI - WIND CHILL INDEX < > VSB - VISIBILITY IN MILES < > HX - HEAT INDEX < > TC - TEMPERATURE IN CELSIUS < > VRB - VARIABLE WIND DIRECTION < > < >>>>>>>>>>>>>>>>>>>>>>>>>>>> KEY <<<<<<<<<<<<<<<<<<<<<<<<<<<

USA.gov is the U.S. government's official web portal to all federal, state and local government web resources and services.